User: anonymous   Login
Location: Unspecified
(41.7447°N, 0.0000°E)
Time: 01:08:06
(UTC+00:00)
Language:

Cosmos 1570 Rocket - Orbit

View from above orbital plane
View from above orbital plane
View from above satellite
View from above satellite

Ground track
Ground track

The orbit is defined by the following mean orbital elements,

1 15032U          26088.09903403 +.00000000 +00000-0 +92055-4 0 00001
2 15032  74.0705 330.0415 0016109  40.9321 319.3038 14.36116851    01
Epoch (UTC): 29 March 2026 02:22:36
Eccentricity: 0.0016109
inclination: 74.0705°
perigee height: 760 km
apogee height: 783 km
right ascension of ascending node: 330.0415°
argument of perigee: 40.9321°
revolutions per day: 14.36116851
mean anomaly at epoch: 319.3038°

The dashed part of the orbit path shows where the satellite is in the earth's shadow,  

DLR